User: anonymous   Login
Location: ?
(35.4554°N, 139.3092°E)
Time: 22:02:48
(UTC+00:00)
Language:

Resurs 1-4 Rocket - Orbit

View from above orbital plane
View from above orbital plane
View from above satellite
View from above satellite

Ground track
Ground track

The orbit data is extracted from the following two-line orbital elements,

1 25400U 98043G   21172.57464686 -.00000031  00000-0  53458-5 0  9999
2 25400  98.6405 108.3590 0009643 346.3218  13.7699 14.25477814193832
Epoch (UTC): 21 June 2021 13:47:29
Eccentricity: 0.0009643
inclination: 98.6405°
perigee height: 800 km
apogee height: 814 km
right ascension of ascending node: 108.3590°
argument of perigee: 346.3218°
revolutions per day: 14.25477814
mean anomaly at epoch: 13.7699°
orbit number at epoch: 19383

The dashed part of the orbit path shows where the satellite is in the earth's shadow,  

DLR